Miscellaneous Local Product
Issued by NWS North Platte, NE

Home | Current Version | Previous Version | Graphics & Text | Print | Product List | Glossary On
Versions: 1 2 3 4 5 6 7 8 9 10 11 12 13 14 15 16 17 18 19 20 21 22 23 24 25 26 27 28 29 30 31 32 33 34 35 36 37 38 39 40 41 42 43 44 45 46 47 48 49 50
000
AXUS43 KLBF 250310
MISLBF


WESTERN AND NORTH CENTRAL NEBRASKA HOURLY WEATHER ROUNDUP
NATIONAL WEATHER SERVICE NORTH PLATTE NE
900 PM CST WED DEC 24 2014

***STATIONS NOT REPORTING VARIABLES SUCH AS SKY/WEATHER OR
PRESSURE ARE PROVIDED BY THE NEBRASKA DEPARTMENT OF
ROADS...RAWS...AND APRS NETWORKS...AND ARE NOT UNDER
NATIONAL WEATHER SERVICE QUALITY CONTROL***

...OBSERVATIONS IN AND NEAR THE EASTERN PANHANDLE OF NEBRASKA...

CITY           SKY/WX    TMP DP  RH WIND       PRES   REMARKS
PINE RIDGE     CLOUDY    31  23  72 SW7       29.45F WCI  24
CHADRON        CLOUDY    29  22  75 CALM      29.46F
ALLIANCE       CLOUDY    34  26  72 SW10      29.49F WCI  26
SIDNEY         MOCLDY    27  20  75 SW6       29.54F WCI  20
WHITECLAY        N/A     28  22  78 CALM        N/A
CRESCENT LAKE    N/A     35  24  63 S3          N/A
LISCO            N/A     34  22  61 CALM        N/A
BIG SPRINGS      N/A     26  22  85 SW3         N/A
$$

...OBSERVATIONS IN NORTH CENTRAL NEBRASKA...

CITY           SKY/WX    TMP DP  RH WIND       PRES   REMARKS
VALENTINE      CLOUDY    30  25  81 SW3       29.49F
THEDFORD       CLOUDY    36  26  67 SW13      29.53F WCI  27
AINSWORTH      MOCLDY    33  26  76 SW10      29.50F WCI  24
O`NEILL        CLEAR     29  25  82 S8        29.55F WCI  21
ORD            PTCLDY    29  22  75 SW5       29.57F WCI  24
BROKEN BOW     PTCLDY    31  23  72 CALM      29.56F
BROWNLEE         N/A     33  25  71 S8          N/A  WCI  26
BREWSTER         N/A     35  26  67 SW12        N/A  WCI  27
ROSE             N/A     33  29  87 SE7         N/A  WCI  26
COMSTOCK         N/A     36  26  68 S7          N/A  WCI  30
$$

...OBSERVATIONS IN SOUTHWEST NEBRASKA AND FAR NORTHEAST COLORADO...

CITY           SKY/WX    TMP DP  RH WIND       PRES   REMARKS
WRAY           FAIR      38  20  48 SW10      29.58F WCI  31
HOLYOKE        FAIR      34  27  75 SW5       29.56F WCI  30
IMPERIAL       MOCLDY    32  23  69 SW8       29.57F WCI  25
OGALLALA       CLOUDY    27  24  87 W3        29.56F
NORTH PLATTE   CLOUDY    34  23  64 W3        29.57F
MCCOOK         MOCLDY    36  23  59 SW9       29.61F WCI  29
LEXINGTON      MOCLDY    36  26  67 SW10      29.59F WCI  28
PAXTON           N/A     31  27  84 CALM        N/A
GOTHENBURG       N/A     38  24  56 W3          N/A
CALLAWAY         N/A     31  26  81 S7          N/A  WCI  24
$$

...NORTH PLATTE AREA...

CITY           SKY/WX    TMP DP  RH WIND       PRES   REMARKS
AIRPORT        CLOUDY    34  23  64 W3        29.57F
$$

...SOME WEATHER OBSERVATIONS FROM AROUND THE REGION...

CITY           SKY/WX    TMP DP  RH WIND       PRES   REMARKS
DENVER         CLOUDY    39  21  48 S10       29.54F WCI  32
LARAMIE        MOCLDY    29  17  61 W22       29.54F WCI  15
CHEYENNE       CLOUDY    39  19  44 W10       29.52F WCI  32
SCOTTSBLUFF    CLOUDY    37  27  67 S6        29.49F WCI  32
RAPID CITY     CLOUDY    34  26  72 NW7       29.42F WCI  28
PIERRE         CLOUDY    25  21  85 E3        29.47F
WINNER         FAIR      36  24  62 SW13      29.48F WCI  27
SIOUX FALLS    CLOUDY    26  24  92 S12       29.60F WCI  16
OMAHA          PTCLDY    29  26  89 S10       29.73F WCI  20
GRAND ISLAND   CLEAR     33  22  63 S14       29.63F WCI  23
KANSAS CITY    CLOUDY    33  29  85 SW12      29.82F WCI  24
WICHITA        PTCLDY    30  22  72 S9        29.82F WCI  22
HAYS           CLEAR     30  16  55 S8        29.70F WCI  23
LIBERAL        CLEAR     32  14  47 S10       29.75F WCI  24
GOODLAND       CLOUDY    36  18  48 SW15      29.61F WCI  27
$$



USA.gov is the U.S. government's official web portal to all federal, state and local government web resources and services.